Probability
0 0 0 0 0 0 0 0 0 0 0 0 0 0 0 0 0 0 0 0 0 0 0 0 0 0 0 0 0 0 0 0 0 0 0 0 0 0 0 0 0 0 0 0
0 0 0 0 0 0 0 0 0 0 0 0 0 0 0 0 0 0 0 0 0 0 0 0 0 0 0 0 0 0 0 0 0 0 0 0 0 0 0 0 0 0 0 0
0 0 0 0 0 0 0 0 0 0 0 0 0 0 0 0 0 0 0 0 0 0 0 0 0 0 0 0 0 0 0 0 0 0 0 0 0 0 0 0 0 0 0 0
0 0 0 0 0 0 0 0 0 0 0 0 0 0 0 0 0 0 0 0 0 0 0 0 0 0 0 0 0 0 0 0 0 0 0 0 0 0 0 0 0 0 0 0
0 0 0 0 0 0 0 0 0 0 0 0 0 0 0 0 0 0 0 0 0 0 0 0 0 0 0 0 0 0 0 0 0 0 0 0 0 0 0 0 0 0 0 0
0 0 0 0 0 0 0 0 0 0 0 0 0 0 0 0 0 0 0 0 0 0 0 0 0 0 0 0 0 0 0 0 0 0 0 0 0 0 0 0 0 0 0 0
0 0 0 0 0 0 0 0 0 0 0 0 0 0 0 0 0 0 0 0 0 0 0 0 0 0 0 0 0 0 0 0 0 0 0 0 0 0 0 0 0 0 0 0
0 0 0 0 0 0 0 0 0 0 0 0 0 0 0 0 0 0 0 0 0 0 0 0 0 0 0 0 0 0 0 0 0 0 0 0 0 0 0 0 0 0 0 0
0 0 0 0 0 0 0 0 0 0 0 0 0 0 0 0 0 0 0 0 0 0 0 0 0 0 0 0 0 0 0 0 0 0 0 0 0 0 0 0 0 0 0 0
0 0 0 0 0 0 0 0 0 0 0 0 0 0 0 0 0 0 0 0 0 0 0 0 0 0 0 0 0 0 0 0 0 0 0 0 0 0 0 0 0 0 0 0
0 0 0 0 0 0 0 0 0 0 0 0 0 0 0 0 0 0 0 0 0 0 0 0 0 0 0 0 0 0 0 0 0 0 0 0 0 0 0 0 0 0 0 0
0 0 0 0 0 0 0 0 0 0 0 0 0 0 0 0 0 0 0 0 0 0 0 0 0 0 0 0 0 0 0 0 0 0 0 0 0 0 0 0 0 0 0 0
0 0 0 0 0 0 0 0 0 0 0 0 0 0 0 0 0 0 0 0 0 0 0 0 0 0 0 0 0 0 0 0 0 0 0 0 0 0 0 0 0 0 0 0
0 0 0 0 0 0 0 0 0 0 0 0 0 0 0 0 0 0 0 0 0 0 0 0 0 0 0 0 0 0 0 0 0 0 0 0 0 0 0 0 0 0 0 0
0 0 0 0 0 0 0 0 0 0 0 0 0 0 0 0 0 0 0 0 0 0 0 0 0 0 0 0 0 0 0 0 0 0 0 0 0 0 0 0 0 0 0 0
0 0 0 0 0 0 0 0 0 0 0 0 0 0 0 0 0 0 0 0 0 0 0 0 0 0 0 0 0 0 0 0 0 0 0 0 0 0 0 0 0 0 0 0
0 0 0 0 0 0 0 0 0 0 0 0 0 0 0 0 0 0 0 0 0 0 0 0 0 0 0 0 0 0 0 0 0 0 0 0 0 0 0 0 0 0 0 0
0 0 0 0 0 0 0 0 0 0 0 0 0 0 0 0 0 0 0 0 0 0 0 0 0 0 0 0 0 0 0 0 0 0 0 0 0 0 0 0 0 0 0 0
0 0 0 0 0 0 0 0 0 0 0 0 0 0 0 0 0 0 0 0 0 0 0 0 0 0 0 0 0 0 0 0 0 0 0 0 0 0 0 0 0 0 0 0
0 0 0 0 0 0 0 0 0 0 0 0 0 0 0 0 0 0 0 0 0 0 0 0 0 0 0 0 0 0 0 0 0 0 0 0 0 0 0 0 0 0 0 0
0 0 0 0 0 0 0 0 0 0 0 0 0 0 0 0 0 0 0 0 0 0 0 0 0 0 0 0 0 0 0 0 0 0 0 0 0 0 0 0 0 0 0 0
0 0 0 0 0 0 0 0 0 0 0 0 0 0 0 0 0 0 0 0 0 0 0 0 0 0 0 0 0 0 0 0 0 0 0 0 0 0 0 0 0 0 0 0
0 0 0 0 0 0 0 0 0 0 0 0 0 0 0 0 0 0 0 0 0 0 0 0 0 0 0 0 0 0 0 0 0 0 0 0 0 0 0 0 0 0 0 0
0 0 0 0 0 0 0 0 0 0 0 0 0 0 0 0 0 0 0 0 0 0 0 0 0 0 0 0 0 0 0 0 0 0 0 0 0 0 0 0 0 0 0 0
0 0 0 0 0 0 0 0 0 0 0 0 0 0 0 0 0 0 0 0 0 0 0 0 0 0 0 0 0 0 0 0 0 0 0 0 0 0 0 0 0 0 0 0
0 0 0 0 0 0 0 0 0 0 0 0 0 0 0 0 0 0 0 0 0 0 0 0 0 0 0 0 0 0 0 0 0 0 0 0 0 0 0 0 0 0 0 0
0 0 0 0 0 0 0 0 0 0 0 0 0 0 0 0 0 0 0 0 0 0 0 0 0 0 0 0 0 0 0 0 0 0 0 0 0 0 0 0 0 0 0 0
Wind_Speed
4 4 12 9 12 12 11 11 10 10 10 8 11 11 10 10 10 10 9 8 8 8 7 7 7 7 7 7 6 7 8 8 8 7 6 6 6 5 5 5 5 4 4 5
3 1 5 7 12 15 14 13 12 8 8 4 8 9 10 12 12 12 11 10 9 9 9 8 8 8 7 7 6 7 9 8 7 6 5 5 5 4 4 4 4 4 4 4
4 3 5 6 13 16 13 12 12 16 13 4 5 11 14 14 15 14 13 12 12 10 9 8 8 8 8 8 7 8 8 7 5 5 5 4 4 4 4 4 4 4 4 4
5 6 8 13 7 10 13 14 14 10 4 9 10 11 11 12 15 14 14 13 12 11 10 9 8 9 9 8 7 7 7 6 5 5 4 4 4 4 3 3 3 3 4 4
6 7 8 8 7 13 13 14 13 14 10 6 4 4 4 7 11 12 12 11 10 10 10 10 9 9 9 8 7 7 6 5 4 4 3 3 3 3 3 3 3 4 4 5
6 7 13 13 8 7 6 12 11 12 10 9 10 7 9 8 10 11 12 12 12 12 11 10 9 9 10 8 7 6 5 4 3 3 3 2 2 2 2 3 4 5 5 5
6 6 10 6 5 11 12 13 5 10 10 12 14 10 5 10 10 11 12 13 13 13 11 9 9 9 10 8 7 5 4 4 3 3 2 1 1 2 3 4 4 5 6 6
7 8 12 5 8 11 7 2 2 3 5 8 6 4 7 10 12 14 14 13 13 12 10 7 7 9 10 8 6 5 4 3 2 1 1 1 2 2 3 3 5 5 6 6
10 9 2 7 7 3 3 3 2 2 2 6 6 6 8 9 11 11 12 11 10 12 11 7 5 6 9 7 5 4 4 2 1 1 1 1 1 3 3 3 3 4 5 6
4 5 2 2 2 2 2 2 3 3 4 6 7 9 10 10 10 10 10 10 10 12 11 8 5 7 7 6 5 4 3 2 1 1 1 1 1 2 2 3 4 4 5 6
5 2 0 3 4 4 3 4 4 3 4 6 10 10 10 10 10 10 9 8 9 10 11 9 8 7 6 5 4 4 3 2 1 1 2 2 2 3 4 4 5 6 5 6
5 5 5 4 4 6 6 5 5 5 5 5 8 10 10 10 9 9 10 9 9 9 10 9 8 7 5 4 4 4 3 2 1 1 2 2 3 4 7 8 11 13 14 12
2 2 2 2 2 4 4 4 5 5 6 7 7 9 10 9 9 9 9 9 10 10 9 9 8 7 5 4 4 4 3 1 1 1 2 2 3 4 6 7 8 11 12 14
2 3 2 1 2 3 4 5 5 5 4 6 7 8 9 8 8 10 9 8 9 9 8 8 7 6 4 4 4 3 2 1 1 1 2 2 3 4 4 6 8 6 7 12
2 1 2 2 4 4 4 5 5 5 5 5 6 8 10 11 12 10 8 8 9 8 7 7 7 6 5 4 4 3 2 1 1 1 2 3 3 4 4 6 6 7 6 7
3 2 2 2 3 3 4 5 6 7 6 6 7 8 8 8 8 8 8 9 9 9 8 7 6 6 5 4 4 3 2 3 2 2 2 3 3 4 4 5 6 6 6 6
5 4 5 5 6 7 8 8 9 9 8 9 10 8 8 9 8 7 7 5 4 6 7 7 6 6 5 4 4 2 2 2 2 2 3 3 3 4 4 5 6 6 6 7
7 7 7 7 7 8 8 8 8 8 10 9 9 9 10 12 13 12 9 7 5 4 4 5 6 6 5 5 4 3 2 2 2 2 3 3 3 4 4 5 6 7 6 6
4 5 5 6 6 6 7 8 8 8 7 9 11 13 12 10 8 9 10 9 9 8 7 7 9 7 5 5 5 3 3 2 2 2 3 4 4 4 4 5 5 6 5 5
5 5 5 4 3 3 4 4 4 5 6 8 9 9 8 8 8 10 9 8 6 4 8 8 6 5 5 4 4 2 2 2 2 3 3 3 3 4 4 5 5 5 5 5
7 7 7 6 4 3 2 1 3 4 5 7 9 10 9 8 8 9 8 6 5 6 7 8 5 5 4 4 4 3 3 3 3 3 3 3 4 4 4 5 5 5 5 5
7 6 7 6 5 4 4 3 1 2 4 5 5 5 7 8 8 5 4 3 7 8 6 5 5 5 5 5 3 3 3 3 3 3 3 3 4 4 4 5 5 5 5 5
6 5 5 5 4 3 3 3 3 1 3 4 5 6 7 7 7 6 5 4 5 8 6 4 6 7 7 4 3 3 3 3 3 3 3 4 4 4 5 5 5 5 5 5
5 5 4 4 3 2 2 2 2 2 2 2 2 3 5 5 3 1 4 8 8 8 5 6 8 7 5 3 3 3 3 3 3 3 3 4 4 4 4 5 5 5 5 6
4 4 3 3 3 2 1 1 2 2 2 3 3 3 2 2 3 4 5 6 8 7 4 5 6 5 3 3 3 3 3 3 4 3 4 4 4 4 5 5 5 5 5 5
4 3 3 3 2 1 0 1 1 1 2 3 3 2 2 3 4 4 4 5 6 5 4 3 3 3 3 3 3 4 4 4 4 4 5 5 5 5 5 6 7 6 5 6
3 2 2 2 2 2 1 0 1 1 1 3 3 3 3 3 3 3 4 4 3 3 3 3 3 3 3 3 3 3 4 4 4 4 5 5 5 5 6 7 6 6 6 6
Wind_Direction
202 163 160 178 190 192 202 200 192 219 221 211 195 188 177 163 158 159 163 163 155 146 136 126 118 111 105 99 93 95 93 87 80 73 68 64 57 48 42 38 31 19 16 4
205 34 165 183 191 193 210 221 230 238 239 208 172 155 158 167 171 175 177 172 161 152 145 141 134 126 116 104 94 93 91 86 82 79 73 65 56 48 43 34 20 14 8 355
186 113 78 230 204 195 203 214 212 231 235 156 152 170 178 180 183 186 180 172 167 160 151 143 136 130 122 113 104 99 98 94 88 85 76 61 49 44 35 20 8 359 350 343
128 120 207 234 198 191 208 222 215 224 211 181 188 191 188 182 183 184 176 171 165 155 144 133 123 118 112 111 110 107 102 95 86 81 73 56 46 37 19 6 354 337 328 323
149 180 239 257 206 194 201 234 215 221 223 192 149 137 222 194 180 178 171 161 152 143 136 130 126 124 121 116 112 105 101 95 86 80 71 51 35 17 359 344 330 318 308 308
160 180 218 235 195 162 164 249 222 207 209 175 145 191 226 183 166 155 146 141 136 131 129 130 130 130 124 122 114 108 104 98 87 76 66 41 10 347 333 321 308 307 303 298
179 206 246 235 165 137 178 236 203 194 195 176 189 209 178 148 147 140 135 132 131 130 132 133 133 130 124 120 115 112 104 96 82 64 41 358 332 317 309 306 305 301 298 295
179 208 238 169 148 174 202 172 174 193 190 180 181 130 122 131 133 134 132 132 132 129 123 119 128 131 124 120 115 107 102 95 82 54 357 336 316 304 301 301 304 303 304 303
194 215 201 167 179 174 133 151 169 178 167 143 136 136 131 130 130 130 132 130 126 126 120 109 107 124 125 121 116 112 106 93 75 25 304 285 294 306 308 303 299 303 305 304
202 235 201 186 111 119 121 144 150 151 148 144 144 143 137 135 134 132 129 128 128 129 129 123 106 94 106 114 113 111 102 85 52 13 340 330 304 288 289 294 296 297 300 300
209 226 69 247 218 182 143 125 128 128 140 148 142 146 145 143 142 140 134 132 137 141 138 134 126 111 103 100 105 107 101 86 40 3 340 324 304 278 284 258 259 283 284 284
207 195 182 209 202 172 164 169 161 148 140 144 150 148 143 144 143 142 142 139 136 135 135 134 130 122 110 101 106 112 106 83 42 1 340 324 315 307 299 295 294 291 290 291
116 103 113 92 115 146 161 163 159 160 158 150 146 144 144 143 143 141 143 147 148 144 139 136 133 128 124 118 112 111 115 103 1 339 326 320 319 317 315 314 305 304 304 306
95 97 96 122 131 122 116 114 112 106 118 136 137 136 136 134 141 150 156 151 138 133 134 136 134 135 133 128 123 124 136 192 230 267 289 297 297 295 296 304 311 307 306 306
142 103 120 98 96 98 102 113 122 136 138 135 140 148 153 157 163 160 143 132 128 132 141 143 144 147 143 137 136 144 163 198 214 255 276 280 281 284 286 288 291 298 304 306
159 130 112 134 163 163 156 168 175 184 177 170 168 171 167 155 143 136 141 150 154 165 165 158 157 153 149 146 147 160 188 217 218 240 265 273 277 282 286 289 292 294 298 304
165 201 206 214 212 206 206 204 201 193 184 186 186 165 144 135 137 152 162 163 145 138 148 156 156 151 153 158 161 168 183 213 225 234 247 257 266 273 280 284 287 289 290 296
208 217 209 207 209 213 220 217 210 199 196 191 161 153 163 173 181 180 166 145 131 135 165 162 156 157 162 168 170 178 189 207 220 232 247 257 265 269 274 278 283 287 292 300
241 246 246 237 229 219 218 215 212 207 190 165 169 182 189 191 175 154 148 156 169 184 187 173 171 155 162 176 177 183 194 212 232 242 249 262 269 268 270 273 278 283 288 291
331 325 314 300 293 259 243 233 207 193 181 172 174 176 181 180 159 152 159 178 187 167 148 154 151 152 166 184 176 171 193 214 235 251 257 261 266 271 272 275 278 282 285 285
345 341 338 331 323 326 320 275 195 189 175 172 182 190 185 165 153 153 160 183 180 145 144 148 154 162 166 165 169 182 199 214 230 242 250 258 266 271 274 275 277 280 282 283
343 341 339 338 334 337 355 357 9 163 159 170 174 158 149 153 158 163 179 166 149 150 150 157 162 165 164 163 173 186 200 215 228 236 243 251 259 267 272 275 276 277 277 278
329 331 336 342 337 336 4 16 24 101 166 173 172 169 167 164 165 169 188 170 148 155 155 158 160 167 170 168 175 186 202 218 230 236 241 248 253 260 267 272 273 274 276 276
331 336 338 338 339 343 345 9 26 43 81 103 119 138 141 143 149 108 111 138 150 155 151 157 172 175 163 161 176 192 208 221 231 238 245 251 255 258 263 267 272 273 273 276
327 324 330 335 330 329 10 83 80 87 97 94 94 85 76 96 135 128 121 137 149 149 150 168 174 160 150 171 191 205 216 224 230 236 244 251 255 258 260 263 265 269 270 271
333 333 342 339 332 345 71 171 174 159 143 129 117 98 77 75 100 116 125 136 144 147 149 153 157 163 183 197 208 218 227 236 243 242 242 247 252 256 259 261 264 264 266 267
315 316 321 335 349 350 342 37 138 157 158 144 129 120 117 114 116 122 128 135 143 151 158 166 175 186 197 207 220 230 235 239 242 245 247 249 252 255 258 260 262 263 265 266